contact:dominique.lefevre@mio.osupytheas.fr, maurice.libes@osupytheas.fr, didier.mallarino@osupytheas.fr
Project:EMSO http://www.emso-fr.org/EMSO-France
Depth: 2436.0 m
Title:EMSO Ligure Ouest : Data MII capteur MICROCAT
DateTime_Computer,Latitude,Longitude,Temperature,Conductivity,Pressure,DateTime_Instrument
DateTime_Computer,Latitude,Longitude,degC,S m-1,dbar,DateTime_Instrument
2021-04-06T00:00:21Z,42.805,6.029,13.2982,4.60046,2470.171,2021-4-06T02:01:29Z
2021-04-06T00:03:24Z,42.805,6.029,13.2985,4.60028,2470.156,2021-4-06T02:04:32Z
2021-04-06T00:06:27Z,42.805,6.029,13.2986,4.60026,2470.156,2021-4-06T02:07:35Z
2021-04-06T00:09:31Z,42.805,6.029,13.2982,4.60049,2470.171,2021-4-06T02:10:38Z
2021-04-06T00:12:34Z,42.805,6.029,13.2982,4.60043,2470.156,2021-4-06T02:13:42Z
2021-04-06T00:15:37Z,42.805,6.029,13.2979,4.60069,2470.133,2021-4-06T02:16:45Z
2021-04-06T00:18:40Z,42.805,6.029,13.2984,4.60013,2470.156,2021-4-06T02:19:48Z
2021-04-06T00:21:43Z,42.805,6.029,13.2981,4.60051,2470.171,2021-4-06T02:22:51Z
2021-04-06T00:24:46Z,42.805,6.029,13.2981,4.60057,2470.194,2021-4-06T02:25:54Z
2021-04-06T00:27:49Z,42.805,6.029,13.2984,4.60046,2470.171,2021-4-06T02:28:57Z
2021-04-06T00:30:52Z,42.805,6.029,13.2978,4.60043,2470.156,2021-4-06T02:32:00Z
2021-04-06T00:33:55Z,42.805,6.029,13.2982,4.60040,2470.156,2021-4-06T02:35:03Z
2021-04-06T00:36:59Z,42.805,6.029,13.2984,4.60030,2470.147,2021-4-06T02:38:06Z
2021-04-06T00:40:02Z,42.805,6.029,13.3031,4.60039,2470.171,2021-4-06T02:41:10Z
2021-04-06T00:43:05Z,42.805,6.029,13.2982,4.60062,2470.203,2021-4-06T02:44:13Z
2021-04-06T00:46:08Z,42.805,6.029,13.3019,4.60038,2470.194,2021-4-06T02:47:16Z
2021-04-06T00:49:11Z,42.805,6.029,13.2991,4.60050,2470.194,2021-4-06T02:50:19Z
2021-04-06T00:52:14Z,42.805,6.029,13.3021,4.60040,2470.171,2021-4-06T02:53:22Z
2021-04-06T00:55:17Z,42.805,6.029,13.3024,4.60029,2470.156,2021-4-06T02:56:25Z
2021-04-06T00:58:20Z,42.805,6.029,13.3026,4.60043,2470.194,2021-4-06T02:59:28Z
2021-04-06T01:01:24Z,42.805,6.029,13.3040,4.60034,2470.18,2021-4-06T03:02:31Z
2021-04-06T01:04:27Z,42.805,6.029,13.3043,4.60042,2470.24,2021-4-06T03:05:35Z
2021-04-06T01:07:30Z,42.805,6.029,13.3020,4.60048,2470.171,2021-4-06T03:08:38Z
2021-04-06T01:10:33Z,42.805,6.029,13.3024,4.60058,2470.171,2021-4-06T03:11:41Z
2021-04-06T01:13:36Z,42.805,6.029,13.3043,4.60045,2470.18,2021-4-06T03:14:44Z
2021-04-06T01:16:39Z,42.805,6.029,13.3046,4.60049,2470.156,2021-4-06T03:17:47Z
2021-04-06T01:19:42Z,42.805,6.029,13.3043,4.60038,2470.147,2021-4-06T03:20:50Z
2021-04-06T01:22:45Z,42.805,6.029,13.3042,4.60050,2470.18,2021-4-06T03:23:53Z
2021-04-06T01:25:48Z,42.805,6.029,13.3047,4.60029,2470.227,2021-4-06T03:26:56Z
2021-04-06T01:28:52Z,42.805,6.029,13.3059,4.60021,2470.156,2021-4-06T03:29:59Z
2021-04-06T01:31:55Z,42.805,6.029,13.3026,4.60062,2470.18,2021-4-06T03:33:03Z
2021-04-06T01:34:58Z,42.805,6.029,13.3055,4.60035,2470.194,2021-4-06T03:36:06Z
2021-04-06T01:38:01Z,42.805,6.029,13.3012,4.60040,2470.18,2021-4-06T03:39:09Z
2021-04-06T01:41:04Z,42.805,6.029,13.3009,4.60026,2470.203,2021-4-06T03:42:12Z
2021-04-06T01:44:07Z,42.805,6.029,13.2991,4.60052,2470.194,2021-4-06T03:45:15Z
2021-04-06T01:47:10Z,42.805,6.029,13.3042,4.60052,2470.194,2021-4-06T03:48:18Z
2021-04-06T01:50:13Z,42.805,6.029,13.2996,4.60054,2470.217,2021-4-06T03:51:21Z
2021-04-06T01:53:17Z,42.805,6.029,13.2982,4.60030,2470.18,2021-4-06T03:54:24Z
2021-04-06T01:56:20Z,42.805,6.029,13.2982,4.60023,2470.217,2021-4-06T03:57:28Z
2021-04-06T01:59:23Z,42.805,6.029,13.2982,4.60011,2470.194,2021-4-06T04:00:31Z
2021-04-06T02:02:26Z,42.805,6.029,13.2978,4.60023,2470.194,2021-4-06T04:03:34Z
2021-04-06T02:05:29Z,42.805,6.029,13.2982,4.60007,2470.24,2021-4-06T04:06:37Z
2021-04-06T02:08:32Z,42.805,6.029,13.2981,4.60004,2470.156,2021-4-06T04:09:40Z
2021-04-06T02:11:35Z,42.805,6.029,13.2982,4.60006,2470.194,2021-4-06T04:12:43Z
2021-04-06T02:14:38Z,42.805,6.029,13.2985,4.60010,2470.194,2021-4-06T04:15:46Z
2021-04-06T02:17:41Z,42.805,6.029,13.2982,4.60007,2470.18,2021-4-06T04:18:49Z
2021-04-06T02:20:45Z,42.805,6.029,13.2986,4.60009,2470.203,2021-4-06T04:21:52Z
2021-04-06T02:23:48Z,42.805,6.029,13.2978,4.60020,2470.203,2021-4-06T04:24:56Z
2021-04-06T02:26:51Z,42.805,6.029,13.2981,4.60011,2470.18,2021-4-06T04:27:59Z
2021-04-06T02:29:54Z,42.805,6.029,13.2982,4.60004,2470.18,2021-4-06T04:31:02Z
2021-04-06T02:32:57Z,42.805,6.029,13.2978,4.60005,2470.18,2021-4-06T04:34:05Z
2021-04-06T02:36:00Z,42.805,6.029,13.2977,4.60006,2470.217,2021-4-06T04:37:08Z
2021-04-06T02:39:03Z,42.805,6.029,13.2982,4.60006,2470.24,2021-4-06T04:40:11Z
2021-04-06T02:42:06Z,42.805,6.029,13.2981,4.59999,2470.203,2021-4-06T04:43:14Z
2021-04-06T02:45:10Z,42.805,6.029,13.2978,4.60009,2470.194,2021-4-06T04:46:17Z
2021-04-06T02:48:13Z,42.805,6.029,13.2983,4.60001,2470.203,2021-4-06T04:49:21Z
2021-04-06T02:51:16Z,42.805,6.029,13.2983,4.60011,2470.194,2021-4-06T04:52:24Z
2021-04-06T02:54:19Z,42.805,6.029,13.2980,4.60008,2470.217,2021-4-06T04:55:27Z
2021-04-06T02:57:22Z,42.805,6.029,13.2981,4.60014,2470.203,2021-4-06T04:58:30Z
2021-04-06T03:00:25Z,42.805,6.029,13.2983,4.60009,2470.156,2021-4-06T05:01:33Z
2021-04-06T03:03:28Z,42.805,6.029,13.2979,4.60005,2470.194,2021-4-06T05:04:36Z
2021-04-06T03:06:31Z,42.805,6.029,13.2985,4.60010,2470.203,2021-4-06T05:07:39Z
2021-04-06T03:09:35Z,42.805,6.029,13.2980,4.60014,2470.203,2021-4-06T05:10:42Z
2021-04-06T03:12:38Z,42.805,6.029,13.2977,4.60026,2470.203,2021-4-06T05:13:45Z
2021-04-06T03:15:41Z,42.805,6.029,13.2979,4.60029,2470.217,2021-4-06T05:16:49Z
2021-04-06T03:18:44Z,42.805,6.029,13.2981,4.60019,2470.24,2021-4-06T05:19:52Z
2021-04-06T03:21:47Z,42.805,6.029,13.2981,4.60017,2470.24,2021-4-06T05:22:55Z
2021-04-06T03:24:50Z,42.805,6.029,13.2981,4.60022,2470.227,2021-4-06T05:25:58Z
2021-04-06T03:27:53Z,42.805,6.029,13.2981,4.60019,2470.203,2021-4-06T05:29:01Z
2021-04-06T03:30:56Z,42.805,6.029,13.2982,4.60011,2470.194,2021-4-06T05:32:04Z
2021-04-06T03:33:59Z,42.805,6.029,13.2979,4.60021,2470.203,2021-4-06T05:35:07Z
2021-04-06T03:37:03Z,42.805,6.029,13.2982,4.60042,2470.18,2021-4-06T05:38:10Z
2021-04-06T03:40:06Z,42.805,6.029,13.2981,4.60016,2470.203,2021-4-06T05:41:14Z
2021-04-06T03:43:09Z,42.805,6.029,13.2977,4.60022,2470.227,2021-4-06T05:44:17Z
2021-04-06T03:46:12Z,42.805,6.029,13.2982,4.60027,2470.217,2021-4-06T05:47:20Z
2021-04-06T03:49:15Z,42.805,6.029,13.2980,4.60026,2470.203,2021-4-06T05:50:23Z
2021-04-06T03:52:18Z,42.805,6.029,13.2979,4.60031,2470.227,2021-4-06T05:53:26Z
2021-04-06T03:55:21Z,42.805,6.029,13.2983,4.60029,2470.18,2021-4-06T05:56:29Z
2021-04-06T03:58:24Z,42.805,6.029,13.2981,4.60027,2470.217,2021-4-06T05:59:32Z
2021-04-06T04:01:27Z,42.805,6.029,13.2983,4.60028,2470.217,2021-4-06T06:02:35Z
2021-04-06T04:04:31Z,42.805,6.029,13.2981,4.60030,2470.217,2021-4-06T06:05:38Z
2021-04-06T04:07:34Z,42.805,6.029,13.2982,4.60055,2470.203,2021-4-06T06:08:42Z
2021-04-06T04:10:37Z,42.805,6.029,13.2982,4.60089,2470.203,2021-4-06T06:11:45Z
2021-04-06T04:13:40Z,42.805,6.029,13.2984,4.60122,2470.227,2021-4-06T06:14:48Z
2021-04-06T04:16:43Z,42.805,6.029,13.2987,4.60103,2470.18,2021-4-06T06:17:51Z
2021-04-06T04:19:46Z,42.805,6.029,13.2986,4.60110,2470.227,2021-4-06T06:20:54Z
2021-04-06T04:22:49Z,42.805,6.029,13.2996,4.60117,2470.194,2021-4-06T06:23:57Z
2021-04-06T04:25:52Z,42.805,6.029,13.2990,4.60114,2470.24,2021-4-06T06:27:00Z
2021-04-06T04:28:56Z,42.805,6.029,13.2991,4.60088,2470.217,2021-4-06T06:30:03Z
2021-04-06T04:31:59Z,42.805,6.029,13.2998,4.60110,2470.194,2021-4-06T06:33:07Z
2021-04-06T04:35:02Z,42.805,6.029,13.2984,4.60160,2470.194,2021-4-06T06:36:10Z
2021-04-06T04:38:05Z,42.805,6.029,13.2986,4.60104,2470.203,2021-4-06T06:39:13Z
2021-04-06T04:41:08Z,42.805,6.029,13.2988,4.60096,2470.24,2021-4-06T06:42:16Z
2021-04-06T04:44:11Z,42.805,6.029,13.2986,4.60113,2470.194,2021-4-06T06:45:19Z
2021-04-06T04:47:14Z,42.805,6.029,13.2993,4.60114,2470.203,2021-4-06T06:48:22Z
2021-04-06T04:50:17Z,42.805,6.029,13.2996,4.60065,2470.24,2021-4-06T06:51:25Z
2021-04-06T04:53:20Z,42.805,6.029,13.3000,4.60043,2470.156,2021-4-06T06:54:28Z
2021-04-06T04:56:24Z,42.805,6.029,13.3014,4.60051,2470.18,2021-4-06T06:57:31Z
2021-04-06T04:59:27Z,42.805,6.029,13.3040,4.60051,2470.156,2021-4-06T07:00:35Z
2021-04-06T05:02:30Z,42.805,6.029,13.3047,4.60052,2470.156,2021-4-06T07:03:38Z
2021-04-06T05:05:33Z,42.805,6.029,13.3048,4.60046,2470.18,2021-4-06T07:06:41Z
2021-04-06T05:08:36Z,42.805,6.029,13.3054,4.60030,2470.171,2021-4-06T07:09:44Z
2021-04-06T05:11:39Z,42.805,6.029,13.3057,4.60032,2470.171,2021-4-06T07:12:47Z
2021-04-06T05:14:42Z,42.805,6.029,13.3058,4.60044,2470.217,2021-4-06T07:15:50Z
2021-04-06T05:17:45Z,42.805,6.029,13.3052,4.60023,2470.18,2021-4-06T07:18:53Z
2021-04-06T05:20:49Z,42.805,6.029,13.3052,4.60029,2470.194,2021-4-06T07:21:56Z
2021-04-06T05:23:52Z,42.805,6.029,13.3051,4.60049,2470.194,2021-4-06T07:25:00Z
2021-04-06T05:26:55Z,42.805,6.029,13.3056,4.60056,2470.194,2021-4-06T07:28:03Z
2021-04-06T05:29:58Z,42.805,6.029,13.3047,4.60061,2470.171,2021-4-06T07:31:06Z
2021-04-06T05:33:01Z,42.805,6.029,13.3051,4.60075,2470.217,2021-4-06T07:34:09Z
2021-04-06T05:36:04Z,42.805,6.029,13.3042,4.60095,2470.171,2021-4-06T07:37:12Z
2021-04-06T05:39:07Z,42.805,6.029,13.3046,4.60052,2470.133,2021-4-06T07:40:15Z
2021-04-06T05:42:10Z,42.805,6.029,13.3051,4.60041,2470.18,2021-4-06T07:43:18Z
2021-04-06T05:45:13Z,42.805,6.029,13.3051,4.60029,2470.171,2021-4-06T07:46:21Z
2021-04-06T05:48:17Z,42.805,6.029,13.3051,4.60044,2470.171,2021-4-06T07:49:24Z
2021-04-06T05:51:20Z,42.805,6.029,13.3041,4.60045,2470.194,2021-4-06T07:52:28Z
2021-04-06T05:54:23Z,42.805,6.029,13.3045,4.60027,2470.124,2021-4-06T07:55:31Z
2021-04-06T05:57:26Z,42.805,6.029,13.3041,4.60027,2470.171,2021-4-06T07:58:34Z
2021-04-06T06:00:29Z,42.805,6.029,13.3003,4.60034,2470.147,2021-4-06T08:01:37Z
2021-04-06T06:03:32Z,42.805,6.029,13.3025,4.60026,2470.171,2021-4-06T08:04:40Z
2021-04-06T06:06:35Z,42.805,6.029,13.3039,4.60021,2470.171,2021-4-06T08:07:43Z
2021-04-06T06:09:38Z,42.805,6.029,13.3043,4.60019,2470.147,2021-4-06T08:10:46Z
2021-04-06T06:12:42Z,42.805,6.029,13.3026,4.60003,2470.171,2021-4-06T08:13:49Z
2021-04-06T06:15:45Z,42.805,6.029,13.3019,4.60009,2470.133,2021-4-06T08:16:53Z
2021-04-06T06:18:48Z,42.805,6.029,13.3021,4.60013,2470.147,2021-4-06T08:19:56Z
2021-04-06T06:21:51Z,42.805,6.029,13.3037,4.60009,2470.171,2021-4-06T08:22:59Z
2021-04-06T06:24:54Z,42.805,6.029,13.3039,4.60010,2470.147,2021-4-06T08:26:02Z
2021-04-06T06:27:57Z,42.805,6.029,13.3043,4.60027,2470.147,2021-4-06T08:29:05Z
2021-04-06T06:31:00Z,42.805,6.029,13.3036,4.60017,2470.124,2021-4-06T08:32:08Z
2021-04-06T06:34:03Z,42.805,6.029,13.3045,4.60023,2470.1,2021-4-06T08:35:11Z
2021-04-06T06:37:07Z,42.805,6.029,13.3061,4.60030,2470.11,2021-4-06T08:38:14Z
2021-04-06T06:40:10Z,42.805,6.029,13.3066,4.60023,2470.087,2021-4-06T08:41:17Z
2021-04-06T06:43:13Z,42.805,6.029,13.3046,4.60026,2470.11,2021-4-06T08:44:21Z
2021-04-06T06:46:16Z,42.805,6.029,13.3051,4.60014,2470.133,2021-4-06T08:47:24Z
2021-04-06T06:49:19Z,42.805,6.029,13.3041,4.60010,2470.11,2021-4-06T08:50:27Z
2021-04-06T06:52:22Z,42.805,6.029,13.3041,4.60019,2470.124,2021-4-06T08:53:30Z
2021-04-06T06:55:25Z,42.805,6.029,13.3034,4.60024,2470.147,2021-4-06T08:56:33Z
2021-04-06T06:58:28Z,42.805,6.029,13.3049,4.60015,2470.087,2021-4-06T08:59:36Z
2021-04-06T07:01:31Z,42.805,6.029,13.3050,4.60016,2470.11,2021-4-06T09:02:39Z
2021-04-06T07:04:35Z,42.805,6.029,13.3060,4.60021,2470.077,2021-4-06T09:05:42Z
2021-04-06T07:07:38Z,42.805,6.029,13.3051,4.60036,2470.124,2021-4-06T09:08:46Z
2021-04-06T07:10:41Z,42.805,6.029,13.3049,4.60026,2470.087,2021-4-06T09:11:49Z
2021-04-06T07:13:44Z,42.805,6.029,13.3048,4.60029,2470.1,2021-4-06T09:14:52Z
2021-04-06T07:16:47Z,42.805,6.029,13.3045,4.60026,2470.1,2021-4-06T09:17:55Z
2021-04-06T07:19:50Z,42.805,6.029,13.3043,4.60023,2470.087,2021-4-06T09:20:58Z
2021-04-06T07:22:53Z,42.805,6.029,13.3040,4.60022,2470.063,2021-4-06T09:24:01Z
2021-04-06T07:25:56Z,42.805,6.029,13.3049,4.60038,2470.124,2021-4-06T09:27:04Z
2021-04-06T07:28:59Z,42.805,6.029,13.3048,4.60061,2470.077,2021-4-06T09:30:07Z
2021-04-06T07:32:03Z,42.805,6.029,13.3034,4.60020,2470.087,2021-4-06T09:33:10Z
2021-04-06T07:35:06Z,42.805,6.029,13.3041,4.60020,2470.063,2021-4-06T09:36:14Z
2021-04-06T07:38:09Z,42.805,6.029,13.3048,4.60025,2470.124,2021-4-06T09:39:17Z
2021-04-06T07:41:12Z,42.805,6.029,13.3045,4.60021,2470.077,2021-4-06T09:42:20Z
2021-04-06T07:44:15Z,42.805,6.029,13.3043,4.60027,2470.053,2021-4-06T09:45:23Z
2021-04-06T07:47:18Z,42.805,6.029,13.3044,4.60023,2470.04,2021-4-06T09:48:26Z
2021-04-06T07:50:21Z,42.805,6.029,13.3036,4.60033,2470.077,2021-4-06T09:51:29Z
2021-04-06T07:53:24Z,42.805,6.029,13.3030,4.60029,2470.04,2021-4-06T09:54:32Z
2021-04-06T07:56:28Z,42.805,6.029,13.3026,4.60044,2470.053,2021-4-06T09:57:35Z
2021-04-06T07:59:31Z,42.805,6.029,13.3029,4.60040,2470.077,2021-4-06T10:00:39Z
2021-04-06T08:02:34Z,42.805,6.029,13.3070,4.60040,2470.053,2021-4-06T10:03:42Z
2021-04-06T08:05:37Z,42.805,6.029,13.3059,4.60031,2470.04,2021-4-06T10:06:45Z
2021-04-06T08:08:40Z,42.805,6.029,13.3042,4.60033,2470.053,2021-4-06T10:09:48Z
2021-04-06T08:11:43Z,42.805,6.029,13.3011,4.60029,2470.04,2021-4-06T10:12:51Z
2021-04-06T08:14:46Z,42.805,6.029,13.3024,4.60054,2470.017,2021-4-06T10:15:54Z
2021-04-06T08:17:49Z,42.805,6.029,13.3028,4.60020,2470.03,2021-4-06T10:18:57Z
2021-04-06T08:20:53Z,42.805,6.029,13.3020,4.60012,2470.053,2021-4-06T10:22:00Z
2021-04-06T08:23:56Z,42.805,6.029,13.3025,4.60025,2470.017,2021-4-06T10:25:04Z
2021-04-06T08:26:59Z,42.805,6.029,13.3019,4.60027,2470.053,2021-4-06T10:28:07Z
2021-04-06T08:30:02Z,42.805,6.029,13.3009,4.60028,2470.053,2021-4-06T10:31:10Z
2021-04-06T08:33:05Z,42.805,6.029,13.3023,4.60019,2470.077,2021-4-06T10:34:13Z
2021-04-06T08:36:08Z,42.805,6.029,13.3034,4.60032,2470.04,2021-4-06T10:37:16Z
2021-04-06T08:39:11Z,42.805,6.029,13.3024,4.60017,2470.04,2021-4-06T10:40:19Z
2021-04-06T08:42:14Z,42.805,6.029,13.3041,4.60012,2470.017,2021-4-06T10:43:22Z
2021-04-06T08:45:18Z,42.805,6.029,13.3029,4.60019,2470.03,2021-4-06T10:46:25Z
2021-04-06T08:48:21Z,42.805,6.029,13.3023,4.60014,2469.993,2021-4-06T10:49:29Z
2021-04-06T08:51:24Z,42.805,6.029,13.3051,4.60016,2470.053,2021-4-06T10:52:32Z
2021-04-06T08:54:27Z,42.805,6.029,13.3025,4.60027,2470.03,2021-4-06T10:55:35Z
2021-04-06T08:57:30Z,42.805,6.029,13.3034,4.60036,2470.017,2021-4-06T10:58:38Z
2021-04-06T09:00:33Z,42.805,6.029,13.3041,4.60020,2470.017,2021-4-06T11:01:41Z
2021-04-06T09:03:36Z,42.805,6.029,13.3029,4.60027,2470.017,2021-4-06T11:04:44Z
2021-04-06T09:06:39Z,42.805,6.029,13.3026,4.60016,2470.007,2021-4-06T11:07:47Z
2021-04-06T09:09:42Z,42.805,6.029,13.3039,4.60066,2469.993,2021-4-06T11:10:50Z
2021-04-06T09:12:46Z,42.805,6.029,13.3036,4.60026,2470.007,2021-4-06T11:13:53Z
2021-04-06T09:15:49Z,42.805,6.029,13.3037,4.60016,2469.993,2021-4-06T11:16:57Z
2021-04-06T09:18:52Z,42.805,6.029,13.3026,4.60035,2469.984,2021-4-06T11:20:00Z
2021-04-06T09:21:55Z,42.805,6.029,13.3028,4.60017,2469.97,2021-4-06T11:23:03Z
2021-04-06T09:24:58Z,42.805,6.029,13.3030,4.60016,2470.007,2021-4-06T11:26:06Z
2021-04-06T09:28:01Z,42.805,6.029,13.3018,4.60024,2469.984,2021-4-06T11:29:09Z
2021-04-06T09:31:04Z,42.805,6.029,13.3028,4.60013,2469.984,2021-4-06T11:32:12Z
2021-04-06T09:34:07Z,42.805,6.029,13.3024,4.60015,2470.007,2021-4-06T11:35:15Z
2021-04-06T09:37:11Z,42.805,6.029,13.3027,4.60024,2469.97,2021-4-06T11:38:18Z
2021-04-06T09:40:14Z,42.805,6.029,13.3051,4.60037,2469.984,2021-4-06T11:41:22Z
2021-04-06T09:43:17Z,42.805,6.029,13.3043,4.60029,2470.007,2021-4-06T11:44:25Z
2021-04-06T09:46:20Z,42.805,6.029,13.3027,4.60029,2470.007,2021-4-06T11:47:28Z
2021-04-06T09:49:23Z,42.805,6.029,13.3029,4.60023,2469.993,2021-4-06T11:50:31Z
2021-04-06T09:52:26Z,42.805,6.029,13.3035,4.60032,2470.03,2021-4-06T11:53:34Z
2021-04-06T09:55:29Z,42.805,6.029,13.3041,4.60031,2469.984,2021-4-06T11:56:37Z
2021-04-06T09:58:32Z,42.805,6.029,13.3041,4.60028,2469.947,2021-4-06T11:59:40Z
2021-04-06T10:01:36Z,42.805,6.029,13.3045,4.60026,2469.984,2021-4-06T12:02:43Z
2021-04-06T10:04:39Z,42.805,6.029,13.3037,4.60036,2469.984,2021-4-06T12:05:47Z
2021-04-06T10:07:42Z,42.805,6.029,13.3030,4.60039,2469.97,2021-4-06T12:08:50Z
2021-04-06T10:10:45Z,42.805,6.029,13.3036,4.60030,2469.947,2021-4-06T12:11:53Z
2021-04-06T10:13:48Z,42.805,6.029,13.3023,4.60029,2469.947,2021-4-06T12:14:56Z
2021-04-06T10:16:51Z,42.805,6.029,13.3024,4.60034,2469.947,2021-4-06T12:17:59Z
2021-04-06T10:19:54Z,42.805,6.029,13.3014,4.60030,2469.984,2021-4-06T12:21:02Z
2021-04-06T10:22:57Z,42.805,6.029,13.3035,4.60050,2469.96,2021-4-06T12:24:05Z
2021-04-06T10:26:01Z,42.805,6.029,13.3049,4.60024,2469.97,2021-4-06T12:27:08Z
2021-04-06T10:29:04Z,42.805,6.029,13.3031,4.60014,2469.96,2021-4-06T12:30:12Z
2021-04-06T10:32:07Z,42.805,6.029,13.3036,4.60026,2469.96,2021-4-06T12:33:15Z
2021-04-06T10:35:10Z,42.805,6.029,13.3039,4.60019,2469.937,2021-4-06T12:36:18Z
2021-04-06T10:38:13Z,42.805,6.029,13.3057,4.60024,2469.937,2021-4-06T12:39:21Z
2021-04-06T10:41:16Z,42.805,6.029,13.3030,4.60015,2469.96,2021-4-06T12:42:24Z
2021-04-06T10:44:19Z,42.805,6.029,13.3031,4.60029,2469.914,2021-4-06T12:45:27Z
2021-04-06T10:47:22Z,42.805,6.029,13.3039,4.60034,2469.937,2021-4-06T12:48:30Z
2021-04-06T10:50:25Z,42.805,6.029,13.3040,4.60017,2469.923,2021-4-06T12:51:33Z
2021-04-06T10:53:29Z,42.805,6.029,13.3052,4.60017,2469.937,2021-4-06T12:54:36Z
2021-04-06T10:56:32Z,42.805,6.029,13.3052,4.60019,2469.923,2021-4-06T12:57:40Z
2021-04-06T10:59:35Z,42.805,6.029,13.3042,4.60027,2469.9,2021-4-06T13:00:43Z
2021-04-06T11:02:38Z,42.805,6.029,13.3056,4.60025,2469.9,2021-4-06T13:03:46Z
2021-04-06T11:05:41Z,42.805,6.029,13.3051,4.60021,2469.96,2021-4-06T13:06:49Z
2021-04-06T11:08:44Z,42.805,6.029,13.3047,4.60022,2469.96,2021-4-06T13:09:52Z
2021-04-06T11:11:47Z,42.805,6.029,13.3036,4.60026,2469.914,2021-4-06T13:12:55Z
2021-04-06T11:14:50Z,42.805,6.029,13.3046,4.60020,2469.937,2021-4-06T13:15:58Z
2021-04-06T11:17:54Z,42.805,6.029,13.3037,4.60029,2469.937,2021-4-06T13:19:01Z
2021-04-06T11:20:57Z,42.805,6.029,13.3039,4.60040,2469.9,2021-4-06T13:22:05Z
2021-04-06T11:24:00Z,42.805,6.029,13.3048,4.60028,2469.9,2021-4-06T13:25:08Z
2021-04-06T11:27:03Z,42.805,6.029,13.3046,4.60021,2469.923,2021-4-06T13:28:11Z
2021-04-06T11:30:06Z,42.805,6.029,13.3028,4.60024,2469.937,2021-4-06T13:31:14Z
2021-04-06T11:33:09Z,42.805,6.029,13.3042,4.60016,2469.937,2021-4-06T13:34:17Z
2021-04-06T11:36:12Z,42.805,6.029,13.3034,4.60032,2469.914,2021-4-06T13:37:20Z
2021-04-06T11:39:15Z,42.805,6.029,13.3035,4.60019,2469.89,2021-4-06T13:40:23Z
2021-04-06T11:42:19Z,42.805,6.029,13.3031,4.60027,2469.914,2021-4-06T13:43:26Z
2021-04-06T11:45:22Z,42.805,6.029,13.3038,4.60016,2469.914,2021-4-06T13:46:30Z
2021-04-06T11:48:25Z,42.805,6.029,13.3039,4.60029,2469.9,2021-4-06T13:49:33Z
2021-04-06T11:51:28Z,42.805,6.029,13.3031,4.60027,2469.914,2021-4-06T13:52:36Z
2021-04-06T11:54:31Z,42.805,6.029,13.3026,4.60015,2469.937,2021-4-06T13:55:39Z
2021-04-06T11:57:34Z,42.805,6.029,13.3045,4.60023,2469.9,2021-4-06T13:58:42Z
2021-04-06T12:00:37Z,42.805,6.029,13.3039,4.60021,2469.89,2021-4-06T14:01:45Z
2021-04-06T12:03:40Z,42.805,6.029,13.3034,4.60041,2469.89,2021-4-06T14:04:48Z
2021-04-06T12:06:44Z,42.805,6.029,13.3029,4.60031,2469.89,2021-4-06T14:07:51Z
2021-04-06T12:09:47Z,42.805,6.029,13.3040,4.60023,2469.9,2021-4-06T14:10:55Z
2021-04-06T12:12:50Z,42.805,6.029,13.3031,4.60021,2469.89,2021-4-06T14:13:58Z
2021-04-06T12:15:53Z,42.805,6.029,13.3029,4.60009,2469.9,2021-4-06T14:17:01Z
2021-04-06T12:18:56Z,42.805,6.029,13.3046,4.60031,2469.89,2021-4-06T14:20:04Z
2021-04-06T12:21:59Z,42.805,6.029,13.3054,4.60026,2469.89,2021-4-06T14:23:07Z
2021-04-06T12:25:02Z,42.805,6.029,13.3019,4.60019,2469.89,2021-4-06T14:26:10Z
2021-04-06T12:28:05Z,42.805,6.029,13.3032,4.60038,2469.89,2021-4-06T14:29:13Z
2021-04-06T12:31:09Z,42.805,6.029,13.3046,4.60038,2469.89,2021-4-06T14:32:16Z
2021-04-06T12:34:12Z,42.805,6.029,13.3039,4.60032,2469.876,2021-4-06T14:35:19Z
2021-04-06T12:37:15Z,42.805,6.029,13.3043,4.60031,2469.89,2021-4-06T14:38:23Z
2021-04-06T12:40:18Z,42.805,6.029,13.3049,4.60029,2469.876,2021-4-06T14:41:26Z
2021-04-06T12:43:21Z,42.805,6.029,13.3041,4.60028,2469.876,2021-4-06T14:44:29Z
2021-04-06T12:46:24Z,42.805,6.029,13.3050,4.60023,2469.89,2021-4-06T14:47:32Z
2021-04-06T12:49:27Z,42.805,6.029,13.3041,4.60027,2469.89,2021-4-06T14:50:35Z
2021-04-06T12:52:30Z,42.805,6.029,13.3039,4.60020,2469.89,2021-4-06T14:53:38Z
2021-04-06T12:55:33Z,42.805,6.029,13.3046,4.60023,2469.914,2021-4-06T14:56:41Z
2021-04-06T12:58:37Z,42.805,6.029,13.3036,4.60026,2469.867,2021-4-06T14:59:44Z
2021-04-06T13:01:40Z,42.805,6.029,13.3041,4.60026,2469.876,2021-4-06T15:02:48Z
2021-04-06T13:04:43Z,42.805,6.029,13.3050,4.60036,2469.914,2021-4-06T15:05:51Z
2021-04-06T13:07:46Z,42.805,6.029,13.3034,4.60024,2469.914,2021-4-06T15:08:54Z
2021-04-06T13:10:49Z,42.805,6.029,13.3037,4.60021,2469.89,2021-4-06T15:11:57Z
2021-04-06T13:13:52Z,42.805,6.029,13.3025,4.60027,2469.853,2021-4-06T15:15:00Z
2021-04-06T13:16:55Z,42.805,6.029,13.3057,4.60027,2469.876,2021-4-06T15:18:03Z
2021-04-06T13:19:58Z,42.805,6.029,13.3024,4.60022,2469.867,2021-4-06T15:21:06Z
2021-04-06T13:23:02Z,42.805,6.029,13.3031,4.60024,2469.876,2021-4-06T15:24:09Z
2021-04-06T13:26:05Z,42.805,6.029,13.3024,4.60014,2469.876,2021-4-06T15:27:13Z
2021-04-06T13:29:08Z,42.805,6.029,13.3034,4.60026,2469.867,2021-4-06T15:30:16Z
2021-04-06T13:32:11Z,42.805,6.029,13.3033,4.60021,2469.853,2021-4-06T15:33:19Z
2021-04-06T13:35:14Z,42.805,6.029,13.3026,4.60018,2469.89,2021-4-06T15:36:22Z
2021-04-06T13:38:17Z,42.805,6.029,13.3031,4.60016,2469.867,2021-4-06T15:39:25Z
2021-04-06T13:41:20Z,42.805,6.029,13.3026,4.60029,2469.867,2021-4-06T15:42:28Z
2021-04-06T13:44:23Z,42.805,6.029,13.3022,4.60017,2469.867,2021-4-06T15:45:31Z
2021-04-06T13:47:27Z,42.805,6.029,13.3031,4.60020,2469.914,2021-4-06T15:48:34Z
2021-04-06T13:50:30Z,42.805,6.029,13.3034,4.60026,2469.876,2021-4-06T15:51:38Z
2021-04-06T13:53:33Z,42.805,6.029,13.3027,4.60028,2469.9,2021-4-06T15:54:41Z
2021-04-06T13:56:36Z,42.805,6.029,13.3017,4.60029,2469.89,2021-4-06T15:57:44Z
2021-04-06T13:59:39Z,42.805,6.029,13.3031,4.60018,2469.853,2021-4-06T16:00:47Z
2021-04-06T14:02:42Z,42.805,6.029,13.3021,4.60017,2469.844,2021-4-06T16:03:50Z
2021-04-06T14:05:45Z,42.805,6.029,13.3029,4.60026,2469.867,2021-4-06T16:06:53Z
2021-04-06T14:08:48Z,42.805,6.029,13.3036,4.60029,2469.876,2021-4-06T16:09:56Z
2021-04-06T14:11:52Z,42.805,6.029,13.3037,4.60026,2469.89,2021-4-06T16:12:59Z
2021-04-06T14:14:55Z,42.805,6.029,13.3024,4.60032,2469.876,2021-4-06T16:16:03Z
2021-04-06T14:17:58Z,42.805,6.029,13.3024,4.60029,2469.876,2021-4-06T16:19:06Z
2021-04-06T14:21:01Z,42.805,6.029,13.3025,4.60021,2469.853,2021-4-06T16:22:09Z
2021-04-06T14:24:04Z,42.805,6.029,13.3028,4.60028,2469.867,2021-4-06T16:25:12Z
2021-04-06T14:27:07Z,42.805,6.029,13.3036,4.60024,2469.89,2021-4-06T16:28:15Z
2021-04-06T14:30:10Z,42.805,6.029,13.3034,4.60026,2469.853,2021-4-06T16:31:18Z
2021-04-06T14:33:13Z,42.805,6.029,13.3026,4.60029,2469.853,2021-4-06T16:34:21Z
2021-04-06T14:36:17Z,42.805,6.029,13.3033,4.60027,2469.844,2021-4-06T16:37:24Z
2021-04-06T14:39:20Z,42.805,6.029,13.3048,4.60033,2469.853,2021-4-06T16:40:28Z
2021-04-06T14:42:23Z,42.805,6.029,13.3055,4.60026,2469.83,2021-4-06T16:43:31Z
2021-04-06T14:45:26Z,42.805,6.029,13.3043,4.60022,2469.867,2021-4-06T16:46:34Z
2021-04-06T14:48:29Z,42.805,6.029,13.3063,4.60027,2469.83,2021-4-06T16:49:37Z
2021-04-06T14:51:32Z,42.805,6.029,13.3041,4.60032,2469.844,2021-4-06T16:52:40Z
2021-04-06T14:54:35Z,42.805,6.029,13.3051,4.60033,2469.83,2021-4-06T16:55:43Z
2021-04-06T14:57:38Z,42.805,6.029,13.3046,4.60045,2469.867,2021-4-06T16:58:46Z
2021-04-06T15:00:42Z,42.805,6.029,13.3058,4.60017,2469.853,2021-4-06T17:01:49Z
2021-04-06T15:03:45Z,42.805,6.029,13.3067,4.60026,2469.83,2021-4-06T17:04:53Z
2021-04-06T15:06:48Z,42.805,6.029,13.3061,4.60031,2469.853,2021-4-06T17:07:56Z
2021-04-06T15:09:51Z,42.805,6.029,13.3064,4.60026,2469.853,2021-4-06T17:10:59Z
2021-04-06T15:12:54Z,42.805,6.029,13.3069,4.60022,2469.806,2021-4-06T17:14:02Z